Preview of NWS' New Version of Forecast
This preview is not operational and should not be used for support decisions.
Latest weather observations around

Eugene, Mahlon Sweet Field (KEUG)

Using English Units (Switch to International System of Units)
Date/ Time (PDT) Wind (mph) Vis. (mi) Weather Sky Cond. Temp (°F) Rel. Humidity Wind Chill (°F) Heat Index (°F) Pressure Precip. (in)
Air Dwpt 6 hour Altimeter (inHg) Sea level (inHg) 1 hr 3 hr 6 hr
Max Min
Sep 17 09:54 SSE 11 10 Cloudy FEW020 OVC047 57 52     83%     29.86 29.86 0    
Sep 17 08:54 SSE 10 7 Light Rain SCT046 BKN055 OVC075 56 51     84%     29.88 29.88 0    
Sep 17 07:54   10 Cloudy FEW040 OVC065 57 50     77%     29.88 29.88 0 0  
Sep 17 06:54   10 Cloudy FEW030 OVC070 58 49     72%     29.89 29.88 0    
Sep 17 05:54 SSE 7 10 Cloudy OVC080 55 51     86%     29.9 29.9 0    
Sep 17 04:54 SE 13 10 Light Rain OVC090 56 51     84%     29.91 29.91 0   0
Sep 17 03:54 SSE 8 10 Light Rain OVC080 56 51     84%     29.94 29.93 0    
Sep 17 02:54 S 7 10 Mostly Cloudy BKN075 56 51     84%     29.95 29.94      
Sep 17 01:54 SSE 10 10 Mostly Clear FEW030 56 51     84%     29.94 29.94      
Sep 17 01:50 SSE 10 10 Partly Cloudy SCT030 55 52     88%     29.95        
Sep 17 01:02 S 5 10 Mostly Cloudy BKN029 BKN075 55 52     89%     29.95        
Sep 17 00:54 SSW 5 10 Mostly Cloudy SCT028 BKN075 56 52     87%     29.96 29.95      
Sep 16 23:54 SE 10 10 Mostly Cloudy BKN080 56 52     87%     29.95 29.95      
Sep 16 23:23 SSE 8 10 Partly Cloudy SCT027 56 52     87%     29.96        
Sep 16 22:54 SSE 7 10 Cloudy OVC029 57 53     87%     29.96 29.96      
Sep 16 21:54 SE 9 10 Partly Cloudy FEW026 SCT100 57 52     83%     29.96 29.96      
Sep 16 20:54 S 7 10 Partly Cloudy SCT110 58 51     78%     29.96 29.96      
Sep 16 19:54 Calm 10 Mostly Cloudy FEW032 BKN100 61 53     75%     29.95 29.94      
Sep 16 18:54 W 6 10 Mostly Cloudy FEW035 BKN110 63 52     67%     29.94 29.93      
Sep 16 17:54 W 13 10 Partly Cloudy FEW035 SCT100 66 51     59%     29.92 29.92      
Sep 16 16:54 WSW 11 10 Mostly Cloudy FEW037 SCT100 BKN200 68 51     55%     29.9 29.9     0
Sep 16 15:54 SW 9 10 Mostly Cloudy FEW028 SCT041 BKN200 68 52     57%     29.9 29.9      
Sep 16 14:54   10 Mostly Cloudy FEW027 SCT034 BKN200 67 50     55%     29.89 29.89      
Sep 16 13:54 3 10 Mostly Cloudy FEW025 SCT080 BKN100 64 52     65%     29.89 29.89 0 0  
Sep 16 12:54 W 6 10 Light Rain BKN025 BKN065 BKN080 60 54     80%     29.88 29.88 0    
Sep 16 11:54 SW 7 10 Mostly Cloudy FEW019 BKN027 BKN075 64 54     70%     29.88 29.87      
Sep 16 11:42 SW 6 10 Mostly Cloudy BKN020 BKN060 BKN075 62 53     72%     29.88        
Sep 16 10:54 S 7 10 Mostly Cloudy SCT016 BKN090 BKN100 61 54     78%     29.88 29.88     0
Sep 16 09:54 S 5 10 Mostly Cloudy FEW012 SCT080 BKN150 59 52     78%     29.87 29.87      
Sep 16 08:54 S 6 10 Mostly Cloudy FEW010 SCT017 BKN150 57 52     83%     29.87 29.86      
Sep 16 08:27 SSE 6 10 Mostly Cloudy FEW008 SCT017 BKN110 56 53     90%     29.86        
Sep 16 07:54 S 3 10 Mostly Cloudy SCT013 SCT080 BKN110 56 53     90%     29.86 29.85 0 0  
Sep 16 06:54 SE 7 10 Light Rain FEW015 BKN070 BKN120 54 52     93%     29.84 29.84 0    
Sep 16 06:08 S 5 10 Cloudy BKN014 BKN085 OVC120 54 52     93%     29.84        
Sep 16 05:54 SSE 5 10 Cloudy BKN016 BKN085 OVC120 53 51     93%     29.84 29.83      
Sep 16 04:54 SSE 9 10 Clear CLR 53 50     89%     29.82 29.82     0
Sep 16 03:54 S 6 10 Clear CLR 51 49     92%     29.82 29.82      
Sep 16 02:54 S 7 10 Mostly Clear FEW110 54 52     93%     29.81 29.81      
Sep 16 01:54 SSE 6 10 Cloudy BKN080 OVC120 56 53     90%     29.82 29.82 0 0  
Sep 16 01:27 S 6 10 Light Rain SCT017 SCT055 OVC085 56 54     93%     29.82   0    
Sep 16 01:17 S 5 10 Cloudy BKN017 BKN055 OVC070 57 55     93%     29.83   0    
Sep 16 00:54 SSE 5 10 Cloudy BKN065 OVC090 57 54     89%     29.83 29.83      
Sep 15 23:54 SSE 7 10 Cloudy FEW032 OVC080 57 54     89%     29.83 29.83      
Sep 15 22:54 S 5 10 Cloudy SCT041 OVC095 57 54     89%     29.83 29.82     0
Sep 15 21:54 S 6 10 Cloudy FEW037 OVC090 57 55     93%     29.82 29.82 0    
Sep 15 20:54 SSE 5 7 Light Rain FEW030 FEW040 OVC085 57 55     93%     29.83 29.83 0    
Sep 15 19:54 SSE 7 6 Light Rain and Fog/Mist SCT028 BKN040 OVC075 57 55     93%     29.81 29.81 0 0  
Sep 15 18:58 SSE 6 4 Light Rain and Fog/Mist SCT021 OVC045 58 55     90%     29.82   0    
Sep 15 18:54 SSE 7 8 Light Rain FEW012 BKN022 OVC042 58 55     90%     29.82 29.82 0    
Sep 15 17:54 SSE 6 10 Cloudy FEW015 BKN029 OVC100 58 54     87%     29.82 29.82 0    
Sep 15 17:17 SE 7 9 Cloudy FEW008 BKN029 OVC100 58 55     90%     29.82   0    
Sep 15 16:54 SSE 10 8 Light Rain FEW012 SCT030 OVC090 58 55     90%     29.82 29.82 0   0
Sep 15 16:34 SSE 9 7 Light Rain FEW014 BKN030 OVC085 58 55     90%     29.82   0    
Sep 15 15:54 SSE 9 5 Light Rain and Fog/Mist FEW008 SCT011 OVC028 58 55     90%     29.82 29.82 0    
Sep 15 15:49 SSE 8 4 Light Rain and Fog/Mist FEW008 BKN028 OVC070 57 55     94%     29.82   0    
Sep 15 15:17 SSE 10 6 Light Rain and Fog/Mist FEW008 SCT030 OVC080 58 55     90%     29.82   0    
Sep 15 14:54 SE 10 3 Light Rain and Fog/Mist FEW020 SCT070 OVC085 58 55     90%     29.82 29.82 0    
Sep 15 13:54 SSE 8 3 Rain and Fog/Mist SCT049 BKN060 OVC090 57 54     89%     29.85 29.85 0 0  
Sep 15 12:54 SE 7 3 Light Rain and Fog/Mist FEW027 BKN049 OVC060 58 54     87%     29.85 29.84 0    
Sep 15 12:36 S 7 3 Rain and Fog/Mist SCT027 BKN045 OVC060 59 55     87%     29.85   0    
Sep 15 11:56 SW 8 3 Light Rain and Fog/Mist FEW017 BKN027 OVC040 60 57     90%     29.84   0    
Sep 15 11:54 SW 9 1.75 Light Rain and Fog/Mist FEW017 BKN027 OVC040 60 57     90%     29.84 29.84 0    
Sep 15 11:23 SSW 7 1.5 Rain and Fog/Mist FEW015 BKN029 OVC036 60 57     90%     29.83   0    
Sep 15 10:54 S 7 2.5 Light Rain and Fog/Mist BKN024 OVC035 59 57     93%     29.82 29.82 0   0
Sep 15 09:54 SSE 3 2 Rain and Fog/Mist OVC025 60 56     86%     29.82 29.82 0    
Sep 15 09:30 S 7 6 Light Rain and Fog/Mist BKN028 OVC035 60 55     83%     29.82   0    
Sep 15 08:54 SW 3 9 Light Rain SCT034 OVC043 60 56     86%     29.82 29.81 0    
Sep 15 07:54 SSE 10 3 Light Rain and Fog/Mist BKN038 BKN050 OVC060 61 54     78%     29.81 29.8 0 0  
Sep 15 06:54 S 10 10 Mostly Cloudy FEW010 SCT038 BKN044 60 53     78%     29.82 29.81      
Sep 15 05:54   10 Mostly Cloudy FEW010 BKN044 60 54     80%     29.82 29.82      
Sep 15 04:54 S 5 10 Cloudy OVC048 58 54     87%     29.84 29.83      
Sep 15 03:54 S 7 10 Partly Cloudy FEW055 SCT070 55 52     89%     29.85 29.85      
Sep 15 02:54 SSE 7 10 Clear CLR 57 52     83%     29.88 29.87      
Sep 15 01:54 SSE 8 10 Clear CLR 58 53     84%     29.9 29.89      
Sep 15 00:54 S 7 10 Clear CLR 57 53     87%     29.91 29.9      
Sep 14 23:54 SSW 6 10 Clear CLR 57 53     87%     29.91 29.91      
Sep 14 22:54 SSW 8 10 Mostly Clear FEW160 FEW250 58 53     84%     29.92 29.91      
Sep 14 21:54 SSW 3 10 Mostly Clear FEW250 61 53     75%     29.93 29.92      
Sep 14 20:54 WSW 6 10 Mostly Clear FEW260 64 54     70%     29.92 29.91      
Sep 14 19:54 WSW 11 10 Mostly Clear FEW040 FEW280 68 55     63%     29.91 29.91      
Sep 14 18:54 WSW 10 10 Partly Cloudy FEW040 SCT280 73 55     53%   73 29.92 29.91      
Sep 14 17:54 W 10 10 Partly Cloudy FEW045 SCT280 77 54     45%   77 29.92 29.91      
Sep 14 16:54 SSW 10 10 Partly Cloudy FEW042 SCT280 78 54     43%   78 29.93 29.92      
Sep 14 15:54 S 9 10 Partly Cloudy FEW040 FEW180 SCT280 77 56     48%   77 29.95 29.94      
Sep 14 14:54 7 10 Partly Cloudy FEW034 FEW180 SCT280 75 56     52%   75 29.97 29.96      
Sep 14 13:54 WSW 8 10 Mostly Cloudy FEW029 BKN250 74 56     53%   74 29.99 29.99      
Sep 14 12:54 SW 6 10 Mostly Cloudy BKN024 BKN250 73 58     59%   73 30.01 30      
Sep 14 12:07 Calm 10 Mostly Cloudy BKN019 BKN250 70 57     63%     30.02        
Sep 14 11:54 3 10 Mostly Cloudy SCT020 BKN250 69 57     65%     30.03 30.02      
Notice The following observation data may not be complete
May 14 20:54 SW 13 10 Mostly Clear FEW050   51      %     29.89 29.89      
May 14 08:54 WSW 6 10 Cloudy OVC009 52 50     93%     30 30      
May 13 20:54   10 Mostly Clear FEW250 62 53     72%     29.89 29.89      
May 13 18:54 N 3 10 Clear CLR 79 63     58%   79 29.86 29.86      
May 13 05:54 S 5 10 Fog CLR 48 48     100% 46   29.93 29.93      
May 12 07:54 N 5 10 Cloudy FEW012 OVC018 51 50     96%     30.12 30.12      
May 11 23:54 NE 5 10 Cloudy FEW041 OVC049 52 50     93%     30.16 30.16      
Jun 11 18:54 WNW 9 10 Clear   64 50     60%     29.99 29.99      
Jun 11 11:54 N 9 10 Mostly Cloudy FEW020 BKN035 BKN045 59 50     72%     30.05 30.05      
Jun 11 09:54 5 10 Cloudy BKN012 BKN034 OVC060 53 50     89%     30.06 30.06      
Jun 10 11:54 S 13 10 Mostly Cloudy FEW024 SCT030 BKN036 BKN150 55 47     74%     29.89 29.89      
Jun 09 16:54 W 13 10 Mostly Cloudy SCT034 SCT042 BKN049 58 47     67%     29.91 29.91     0
Jun 08 20:54 WSW 5 10 Clear   55 46     72%     30 30      
Notice The following observation data may not be complete
Jun 08 10:17   10 Mostly Cloudy FEW013 SCT030 BKN044          %         0    
Jun 07 16:54 WNW 7 10 Cloudy SCT080 OVC095 73 50     44%   72 29.74 29.73      
Jun 07 11:54 WSW 10 10 Mostly Cloudy SCT100 BKN200 BKN250 68 49     50%     29.8 29.8      
Jun 07 10:54 SSW 8 10 Mostly Cloudy FEW120 BKN200 BKN250 65 53     65%     29.83 29.82